[[{"header":{"parameterUnit":"m.s-1","parameterCategory":1,"la1":30.2991,"la2":30.254,"lo1":-89.0895,"lo2":-89.0444,"dy":0.0017,"dx":0.0017,"nx":28,"ny":28,"refTime":"2025-08-09T03:00:00:Z","depth":0,"parameterNumber":2,"parameterNumberName":"U-component_of_WINDS"},"data":[0,0,0,0,0,0,0,0,0,0,0,0,0,0,0,0,0,0,0,0,0,0,0,0,0,0,0,0,0,0,0,0,0,0,0,0,0,0,0,0,0,0,0,0,0,0,0,0,0,0,0,0,0,0,0,0,0,0,-2.4502,-2.4501,0,-2.4446,-2.4445,-2.4445,-2.4344,-2.4342,-2.434,-2.4338,-2.4285,-2.4285,-2.4286,0,0,0,0,0,0,0,0,0,0,0,0,0,-2.4527,-2.4527,-2.4502,-2.4501,-2.45,-2.4446,-2.4445,-2.4445,-2.4344,-2.4342,-2.434,-2.4338,-2.4285,-2.4285,-2.4286,0,0,0,0,0,0,0,0,0,0,0,0,0,-2.4498,-2.4527,-2.4502,-2.4444,-2.4438,-2.4446,-2.4445,-2.4444,-2.4345,-2.4342,-2.4339,-2.4336,-2.4285,-2.4285,-2.4286,-2.4347,0,0,-2.4287,-2.4288,0,0,0,0,0,0,0,0,-2.45,-2.4497,-2.4453,-2.4448,-2.4441,-2.4399,-2.4434,-2.4412,-2.4346,-2.438,-2.4338,-2.4335,-2.4325,-2.4322,-2.4318,-2.4345,-2.4342,-2.4287,-2.4288,-2.4288,-2.4288,0,0,0,0,0,0,0,-2.4502,-2.4499,-2.448,-2.4453,-2.4445,-2.4422,-2.4415,-2.443,-2.437,-2.4377,-2.437,-2.4364,-2.4322,-2.4318,-2.4316,-2.4342,-2.4287,-2.4288,-2.4288,-2.4289,-2.442,-2.4423,0,0,0,0,0,0,-2.4512,-2.4501,-2.4482,-2.4478,-2.4464,-2.4424,-2.4416,-2.4416,-2.437,-2.436,-2.4367,-2.436,-2.4319,-2.4316,-2.4314,-2.4386,-2.4288,-2.4289,-2.4289,-2.4417,-2.4421,-2.4424,0,0,0,0,0,0,-2.4513,-2.4511,-2.4484,-2.4488,-2.4482,-2.4427,-2.4427,-2.4416,-2.4412,-2.4362,-2.4351,-2.4374,-2.4316,-2.4313,-2.434,-2.4383,-2.4289,-2.4289,-2.4413,-2.4418,-2.4422,-2.4529,0,0,0,0,0,0,-2.4514,-2.4512,-2.4533,-2.4489,-2.4483,-2.451,-2.443,-2.4417,-2.4413,-2.4404,-2.4365,-2.4356,-2.4314,-2.434,-2.4341,-2.4382,-2.429,-2.4409,-2.4415,-2.4421,-2.4522,-2.4537,-2.455,0,0,0,0,0,-2.4515,-2.4565,-2.4535,-2.4533,-2.4508,-2.4512,-2.4509,-2.4458,-2.4417,-2.4439,-2.4407,-2.4358,-2.4378,-2.4344,-2.4344,-2.4386,-2.4406,-2.4413,-2.442,-2.4515,-2.4534,-2.455,0,0,0,0,0,0,-2.4617,-2.4558,-2.4524,-2.4561,-2.4543,-2.4495,-2.4521,-2.4479,-2.4472,-2.4463,-2.4401,-2.4393,-2.443,-2.441,-2.4373,-2.4445,-2.4384,-2.4392,-2.4457,-2.4474,-2.4488,-2.4493,-2.429,0,0,0,0,0,-2.4643,-2.465,-2.4599,-2.4637,-2.463,-2.4578,-2.4577,-2.454,-2.4518,-2.451,-2.448,-2.4462,-2.4465,-2.4468,-2.4467,-2.4518,-2.451,-2.4547,-2.4561,-2.4573,-2.4581,-2.461,-2.4627,-2.4447,-2.4447,-2.4447,0,0,-2.4698,-2.4668,-2.4676,-2.4657,-2.4638,-2.4649,-2.4572,-2.4585,-2.4593,-2.4512,-2.4537,-2.4515,-2.4491,-2.4531,-2.4547,-2.4516,-2.4629,-2.4582,-2.4592,-2.4593,-2.4619,-2.4636,-2.4652,-2.4452,-2.4451,-2.445,0,0,-2.4805,-2.4781,-2.4812,-2.4795,-2.4767,-2.4732,-2.474,-2.47,-2.4682,-2.4705,-2.4646,-2.4655,-2.466,-2.4647,-2.4641,-2.4746,-2.4702,-2.4747,-2.4823,-2.4852,-2.4866,-2.4878,-2.4919,-2.4934,-2.4755,-2.4755,-2.4755,0,-2.4878,-2.489,-2.4833,-2.4852,-2.4847,-2.4773,-2.4806,-2.4792,-2.4767,-2.4766,-2.473,-2.4737,-2.4716,-2.4754,-2.478,-2.4776,-2.4786,-2.4752,-2.4868,-2.488,-2.4891,-2.4929,-2.4944,-2.4761,-2.4761,-2.476,-2.4759,0,-2.4983,-2.4992,-2.502,-2.4998,-2.4995,-2.5021,-2.497,-2.4975,-2.4938,-2.4909,-2.4935,-2.4907,-2.4902,-2.4907,-2.4871,-2.4942,-2.4923,-2.4879,-2.4818,-2.4915,-2.495,-2.4964,-2.477,-2.4768,-2.4766,-2.4764,0,0,-2.5151,-2.5098,-2.511,-2.51,-2.5065,-2.5073,-2.5096,-2.509,-2.5097,-2.5082,-2.5103,-2.511,-2.5069,-2.5063,-2.5025,-2.505,-2.514,-2.5003,-2.5002,-2.5032,-2.522,-2.5256,-2.5273,-2.511,-2.5112,-2.5114,-2.5223,0,-2.5253,-2.5288,-2.5239,-2.5287,-2.5298,-2.523,-2.525,-2.5233,-2.5206,-2.5213,-2.5183,-2.5191,-2.5135,-2.5132,-2.5154,-2.5124,-2.5177,-2.5115,-2.5131,-2.5132,-2.5142,-2.5291,-2.5328,-2.5432,-2.5236,-2.5238,-2.524,0,-2.5375,-2.5367,-2.5416,-2.5382,-2.5384,-2.5404,-2.5396,-2.5402,-2.5382,-2.5361,-2.5355,-2.531,-2.5334,-2.5273,-2.5306,-2.5266,-2.5269,-2.5256,-2.5259,-2.526,-2.5194,-2.53,-2.5464,-2.5481,-2.5261,-2.5259,-2.5257,0,-2.5498,-2.5499,-2.5529,-2.5522,-2.5482,-2.5498,-2.5482,-2.5459,-2.546,-2.5453,-2.5454,-2.545,-2.5449,-2.5449,-2.5406,-2.5365,-2.5446,-2.538,-2.5432,-2.5434,-2.5454,-2.5454,-2.5624,-2.5452,-2.5451,-2.5451,-2.5451,0,-2.5618,-2.5651,-2.5584,-2.5603,-2.564,-2.5584,-2.5622,-2.56,-2.558,-2.5596,-2.5536,-2.5553,-2.5493,-2.5504,-2.547,-2.5505,-2.5504,-2.549,-2.5481,-2.5497,-2.5499,-2.55,-2.5493,-2.5455,-2.5454,-2.5454,-2.5453,0,-2.5761,-2.5717,-2.5746,-2.5706,-2.5697,-2.5726,-2.5693,-2.571,-2.568,-2.5701,-2.5702,-2.5656,-2.5666,-2.5622,-2.5624,-2.5601,-2.5655,-2.5632,-2.5662,-2.5656,-2.5711,-2.5708,-2.589,-2.5913,-2.5724,-2.5726,-2.5727,0,-2.5842,-2.5866,-2.5829,-2.5835,-2.5822,-2.5832,-2.5832,-2.5779,-2.5783,-2.5764,-2.5785,-2.5789,-2.579,-2.5809,-2.5777,-2.578,-2.5759,-2.5822,-2.5759,-2.5775,-2.5764,-2.5764,-2.5768,-2.5837,-2.5839,-2.5841,-2.5842,0,-2.5991,-2.5969,-2.5971,-2.5967,-2.597,-2.5964,-2.5954,-2.5963,-2.5906,-2.5913,-2.5922,-2.5923,-2.5926,-2.5933,-2.5929,-2.5915,-2.5871,-2.5862,-2.5875,-2.5893,-2.591,-2.5905,-2.5701,-2.5859,-2.5857,-2.5856,-2.5855,-2.5854,-2.6107,-2.6127,-2.6105,-2.6111,-2.6098,-2.6092,-2.6107,-2.608,-2.6086,-2.6084,-2.6052,-2.6069,-2.6051,-2.6041,-2.6032,-2.6046,-2.6016,-2.6033,-2.6038,-2.6044,-2.6055,-2.5906,-2.6044,-2.6044,-2.6043,-2.6043,-2.6042,0,-2.6256,-2.6239,-2.6245,-2.6234,-2.624,-2.6196,-2.6184,-2.6193,-2.6207,-2.6194,-2.6197,-2.621,-2.6217,-2.6186,-2.6189,-2.6207,-2.6187,-2.621,-2.6209,-2.6208,-2.608,-2.607,-2.6226,-2.6226,-2.6226,-2.6226,-2.6226,-2.6226,-2.6334,-2.6367,-2.6343,-2.637,-2.6352,-2.6367,-2.6365,-2.636,-2.635,-2.6366,-2.6372,-2.6351,-2.6332,-2.6334,-2.634,-2.6331,-2.6337,-2.6367,-2.6352,-2.6234,-2.6216,-2.6199,-2.619,-2.6368,-2.6368,-2.6479,-2.648,-2.648]},{"header":{"parameterUnit":"m.s-1","parameterCategory":1,"la1":30.2991,"la2":30.254,"lo1":-89.0895,"lo2":-89.0444,"dy":0.0017,"dx":0.0017,"nx":28,"ny":28,"refTime":"2025-08-09T03:00:00:Z","depth":0,"parameterNumber":3,"parameterNumberName":"V-component_of_WINDS"},"data":[0,0,0,0,0,0,0,0,0,0,0,0,0,0,0,0,0,0,0,0,0,0,0,0,0,0,0,0,0,0,0,0,0,0,0,0,0,0,0,0,0,0,0,0,0,0,0,0,0,0,0,0,0,0,0,0,0,0,1.7025,1.7025,0,1.7054,1.7054,1.7055,1.7082,1.7082,1.7083,1.7083,1.7111,1.7111,1.7111,0,0,0,0,0,0,0,0,0,0,0,0,0,1.699,1.699,1.7025,1.7025,1.7026,1.7054,1.7054,1.7055,1.7082,1.7082,1.7083,1.7083,1.711,1.7111,1.7111,0,0,0,0,0,0,0,0,0,0,0,0,0,1.7011,1.6991,1.7025,1.7043,1.7045,1.7054,1.7054,1.7055,1.7082,1.7082,1.7083,1.7083,1.711,1.7111,1.7112,1.7105,0,0,1.7113,1.7114,0,0,0,0,0,0,0,0,1.7009,1.7012,1.704,1.7041,1.7044,1.7065,1.7052,1.7072,1.7082,1.7068,1.7083,1.7084,1.7095,1.7097,1.7101,1.7106,1.7108,1.7113,1.7114,1.7114,1.7114,0,0,0,0,0,0,0,1.7008,1.7011,1.7036,1.704,1.7042,1.7048,1.7052,1.7056,1.7078,1.7069,1.7071,1.7074,1.7096,1.71,1.7102,1.7108,1.7113,1.7114,1.7114,1.7115,1.7108,1.7107,0,0,0,0,0,0,1.7004,1.7009,1.7035,1.7037,1.7027,1.7048,1.7052,1.7058,1.7078,1.7082,1.7074,1.7075,1.7099,1.7101,1.7103,1.7096,1.7114,1.7115,1.7115,1.7109,1.7108,1.7107,0,0,0,0,0,0,1.7003,1.7006,1.7034,1.7024,1.7028,1.7049,1.7054,1.7058,1.7062,1.7082,1.7085,1.7074,1.71,1.7102,1.7104,1.7097,1.7115,1.7116,1.7109,1.7108,1.7108,1.7081,0,0,0,0,0,0,1.7002,1.7006,1.7004,1.7024,1.7028,1.7036,1.7054,1.7058,1.7064,1.7066,1.7083,1.7086,1.71,1.7103,1.7105,1.7098,1.7116,1.711,1.7109,1.7108,1.7083,1.708,1.7077,0,0,0,0,0,1.7001,1.6995,1.7004,1.7007,1.7027,1.7035,1.7038,1.7054,1.7063,1.7061,1.7073,1.7086,1.7098,1.7103,1.7105,1.7099,1.711,1.7109,1.7108,1.7084,1.708,1.7077,0,0,0,0,0,0,1.6974,1.6998,1.7008,1.7009,1.702,1.704,1.7038,1.705,1.7058,1.706,1.7079,1.7083,1.7082,1.7091,1.7096,1.7093,1.7106,1.7105,1.7087,1.7083,1.708,1.7078,1.7117,0,0,0,0,0,1.6968,1.6974,1.6994,1.6993,1.6998,1.7017,1.7021,1.7033,1.7045,1.7049,1.7062,1.7072,1.7078,1.7081,1.7088,1.7085,1.7088,1.7081,1.7078,1.7076,1.7074,1.7071,1.7068,1.7103,1.7103,1.7103,0,0,1.6956,1.697,1.6972,1.6988,1.6998,1.7002,1.7021,1.7025,1.7027,1.705,1.7052,1.7062,1.7074,1.7073,1.7073,1.708,1.7065,1.7074,1.7072,1.7072,1.707,1.7066,1.7063,1.7102,1.7102,1.7103,0,0,1.6936,1.6948,1.6947,1.6957,1.6972,1.6984,1.6984,1.7002,1.7009,1.7013,1.7029,1.7032,1.7043,1.7051,1.7056,1.7038,1.705,1.704,1.7024,1.7021,1.7018,1.7016,1.7008,1.7005,1.7039,1.7039,1.7039,0,1.6918,1.6926,1.6945,1.6948,1.6954,1.6975,1.6974,1.6982,1.6998,1.7001,1.7009,1.7021,1.7032,1.7032,1.7028,1.7032,1.7031,1.7037,1.7017,1.7015,1.7013,1.7005,1.7003,1.7037,1.7037,1.7038,1.7038,0,1.6904,1.6909,1.6906,1.6921,1.6927,1.6928,1.6946,1.695,1.6961,1.6972,1.6974,1.6987,1.6996,1.6998,1.7009,1.6999,1.7003,1.7014,1.7027,1.7008,1.7001,1.6998,1.7035,1.7036,1.7036,1.7037,0,0,1.6866,1.6892,1.6891,1.6897,1.6915,1.6919,1.692,1.693,1.6931,1.6942,1.6942,1.695,1.696,1.6966,1.6979,1.6976,1.6959,1.6987,1.6988,1.698,1.6948,1.6938,1.6934,1.6968,1.6967,1.6967,1.6946,0,1.6848,1.6852,1.6869,1.6867,1.6871,1.6891,1.6892,1.6903,1.6913,1.6918,1.6929,1.6934,1.6948,1.6951,1.695,1.6962,1.6953,1.6964,1.6967,1.6967,1.6961,1.6931,1.6921,1.6901,1.6944,1.6943,1.6943,0,1.6827,1.6836,1.6835,1.6851,1.6854,1.6854,1.6864,1.6868,1.688,1.6888,1.6894,1.6908,1.6909,1.6923,1.6924,1.6931,1.6933,1.6939,1.6939,1.6938,1.6952,1.6928,1.6895,1.6891,1.6939,1.694,1.694,0,1.6797,1.681,1.681,1.6815,1.6835,1.6835,1.6843,1.6856,1.686,1.6868,1.6871,1.6879,1.6883,1.6888,1.6903,1.6912,1.6902,1.6917,1.6907,1.6906,1.6902,1.6902,1.6867,1.6907,1.6907,1.6907,1.6907,0,1.6774,1.6772,1.6797,1.6797,1.6795,1.6815,1.6812,1.6822,1.6833,1.6834,1.6853,1.6854,1.6874,1.6877,1.6889,1.6887,1.6889,1.6894,1.6897,1.6892,1.6891,1.6892,1.6893,1.6906,1.6907,1.6907,1.6907,0,1.674,1.6757,1.6759,1.6778,1.6783,1.678,1.6796,1.6796,1.6808,1.681,1.6811,1.6829,1.6834,1.685,1.6858,1.6866,1.6859,1.6866,1.6855,1.6857,1.6845,1.6845,1.6808,1.6803,1.6848,1.6848,1.6847,0,1.6723,1.6722,1.6741,1.6744,1.6751,1.6755,1.676,1.6779,1.6782,1.6795,1.6793,1.6799,1.6805,1.6811,1.6824,1.683,1.6836,1.6823,1.6837,1.6831,1.6834,1.6833,1.6832,1.6819,1.6818,1.6818,1.6818,0,1.6691,1.6699,1.6705,1.6713,1.6718,1.6726,1.6734,1.6735,1.6756,1.6759,1.6764,1.6768,1.6777,1.6782,1.679,1.6797,1.681,1.6813,1.6811,1.6804,1.6797,1.6799,1.6845,1.6814,1.6814,1.6814,1.6815,1.6815,1.6664,1.6663,1.6676,1.6681,1.669,1.6697,1.6698,1.671,1.6715,1.6723,1.6734,1.6737,1.6748,1.676,1.6767,1.6769,1.6776,1.6773,1.6772,1.6771,1.6767,1.6798,1.6771,1.6771,1.6771,1.6771,1.6771,0,1.663,1.6639,1.6645,1.6656,1.666,1.6673,1.6683,1.6685,1.6687,1.6697,1.6702,1.6707,1.6712,1.6726,1.6732,1.673,1.6736,1.6731,1.673,1.6731,1.6761,1.6762,1.6726,1.6726,1.6726,1.6726,1.6726,1.6726,1.6613,1.6612,1.6622,1.6625,1.6634,1.6638,1.6642,1.6648,1.6656,1.666,1.6665,1.6674,1.6685,1.6692,1.6696,1.67,1.67,1.6693,1.6698,1.6725,1.673,1.6734,1.6734,1.6693,1.6693,1.6668,1.6668,1.6668]}]]